[[{"header":{"parameterUnit":"m.s-1","parameterCategory":2,"la1":30.2992,"la2":30.254,"lo1":-89.0895,"lo2":-89.0443,"dy":0.0025,"dx":0.0025,"nx":19,"ny":19,"refTime":"2026-05-18T03:00:00:Z","depth":"0","parameterNumber":2,"parameterNumberName":"U-component_of_CURRENTS"},"data":[0,0,0,-0.3227,-0.323,-0.3359,-0.336,-0.3496,-0.3497,0,0,0,0,0,0,0,0,0,0,0,-0.3161,-0.3162,-0.3227,-0.323,-0.3359,-0.336,-0.3496,-0.3497,0,0,0,0,0,0,0,0,0,0,0,-0.3161,-0.3162,-0.3162,-0.3231,-0.3359,-0.336,-0.3496,-0.3405,0,0,0,0,0,0,0,0,0,0,-0.3283,-0.3215,-0.3162,-0.3162,-0.3232,-0.3359,-0.336,-0.3401,-0.341,-0.343,0,-0.3439,0,-0.3482,-0.3506,-0.3506,0,0,0,-0.3228,-0.3207,-0.3258,-0.3162,-0.3233,-0.3359,-0.33,-0.3406,-0.3417,-0.3443,-0.3442,-0.3448,-0.3485,-0.3507,-0.3507,-0.3684,-0.3685,0,0,-0.322,-0.3174,-0.325,-0.3264,-0.3253,-0.3296,-0.3304,-0.3413,-0.3408,-0.3442,-0.3452,-0.3487,-0.3508,-0.3509,-0.3683,-0.3684,0,0,0,-0.3202,-0.3168,-0.3217,-0.3258,-0.329,-0.33,-0.3309,-0.3403,-0.3423,-0.3454,-0.3489,-0.3508,-0.351,-0.3682,-0.3683,-0.3687,0,0,0,-0.3197,-0.3159,-0.3213,-0.3186,-0.3288,-0.335,-0.3296,-0.3415,-0.343,-0.3488,-0.3509,-0.3511,-0.3681,-0.3683,-0.3685,-0.366,0,0,0,-0.3158,-0.3155,-0.3169,-0.3183,-0.3245,-0.335,-0.3376,-0.3419,-0.3452,-0.3507,-0.3512,-0.368,-0.3682,-0.3683,-0.3658,-0.3645,0,0,0,-0.3109,-0.3153,-0.3167,-0.3243,-0.3244,-0.3396,-0.3376,-0.348,-0.3535,-0.3509,-0.3681,-0.3683,-0.3682,-0.3657,-0.3645,-0.3389,-0.3373,0,0,-0.3151,-0.3156,-0.3213,-0.3231,-0.3367,-0.3379,-0.3509,-0.3558,-0.3573,-0.364,-0.3645,-0.3686,-0.3658,-0.3645,-0.3521,-0.3499,0,0,0,-0.3222,-0.3242,-0.3295,-0.3367,-0.3474,-0.3534,-0.3602,-0.3621,-0.3675,-0.3616,-0.3731,-0.3714,-0.3705,-0.3551,-0.3536,-0.3436,-0.3694,-0.3693,-0.3693,-0.3162,-0.3258,-0.3343,-0.3456,-0.3543,-0.3652,-0.3691,-0.3723,-0.3749,-0.3773,-0.3752,-0.379,-0.363,-0.3615,-0.3518,-0.3806,-0.3806,-0.3806,-0.3806,-0.3189,-0.3222,-0.334,-0.3448,-0.3542,-0.3636,-0.3749,-0.3765,-0.3799,-0.3811,-0.3802,-0.3607,-0.3597,-0.35,-0.3807,-0.3807,-0.3807,-0.3807,-0.3807,-0.3105,-0.3132,-0.3215,-0.3344,-0.3453,-0.3593,-0.3649,-0.374,-0.378,-0.3784,-0.3608,-0.3605,-0.3484,-0.3785,-0.3785,-0.3785,-0.3785,-0.3785,-0.3785,-0.2951,-0.3049,-0.3082,-0.3239,-0.33,-0.342,-0.3589,-0.3614,-0.3599,-0.3579,-0.3577,-0.3475,-0.3783,-0.3742,-0.3783,-0.3783,-0.3783,-0.3784,-0.3784,-0.2811,-0.2855,-0.2901,-0.2955,-0.3111,-0.312,-0.3348,-0.3321,-0.3371,-0.3291,-0.319,-0.3461,-0.3422,-0.3432,-0.3385,-0.333,-0.333,-0.333,-0.333,-0.2659,-0.2708,-0.2703,-0.2747,-0.2832,-0.2963,-0.2846,-0.2889,-0.2899,-0.284,-0.2955,-0.2897,-0.292,-0.2853,-0.2876,-0.2818,-0.2622,-0.2621,-0.2621,-0.2523,-0.2566,-0.2487,-0.2582,-0.2677,-0.2718,-0.2515,-0.2422,-0.248,-0.2596,-0.2875,-0.2905,-0.2834,-0.2878,-0.2786,-0.2826,-0.2738,0,0]},{"header":{"parameterUnit":"m.s-1","parameterCategory":2,"la1":30.2992,"la2":30.254,"lo1":-89.0895,"lo2":-89.0443,"dy":0.0025,"dx":0.0025,"nx":19,"ny":19,"refTime":"2026-05-18T03:00:00:Z","depth":"0","parameterNumber":3,"parameterNumberName":"V-component_of_CURRENTS"},"data":[0,0,0,-0.0383,-0.0381,-0.0262,-0.0261,-0.0038,-0.0036,0,0,0,0,0,0,0,0,0,0,0,-0.0425,-0.0425,-0.0383,-0.0381,-0.0262,-0.0261,-0.0038,-0.0036,0,0,0,0,0,0,0,0,0,0,0,-0.0426,-0.0425,-0.0425,-0.0381,-0.0262,-0.0261,-0.0039,-0.014,0,0,0,0,0,0,0,0,0,0,-0.0263,-0.0326,-0.0425,-0.0425,-0.038,-0.0262,-0.0261,-0.0146,-0.0134,-0.0079,0,-0.0078,0,-0.006,-0.0022,-0.0021,0,0,0,-0.0357,-0.0336,-0.0303,-0.0425,-0.038,-0.0262,-0.0309,-0.014,-0.0126,-0.0064,-0.0075,-0.0067,-0.0056,-0.002,-0.0019,0.0119,0.0119,0,0,-0.0364,-0.0396,-0.0313,-0.0295,-0.0369,-0.0313,-0.0305,-0.0132,-0.0126,-0.0074,-0.0062,-0.0052,-0.0019,-0.0017,0.0119,0.0119,0,0,0,-0.0399,-0.0401,-0.0372,-0.0304,-0.0292,-0.031,-0.0301,-0.0133,-0.0124,-0.006,-0.005,-0.0017,-0.0015,0.012,0.0119,-0.001,0,0,0,-0.0402,-0.0422,-0.0376,-0.0392,-0.0297,-0.0222,-0.0307,-0.0136,-0.0116,-0.0051,-0.0017,-0.0013,0.012,0.0119,-0.0007,-0.0056,0,0,0,-0.0427,-0.0425,-0.0418,-0.0394,-0.0353,-0.0225,-0.0205,-0.0131,-0.011,-0.0021,-0.0012,0.012,0.012,-0.0003,-0.005,0.0016,0,0,0,-0.0453,-0.0496,-0.0419,-0.0462,-0.0355,-0.0321,-0.0206,-0.0159,-0.0097,-0.0016,0.012,0.0119,-0.0002,-0.0046,0.0018,0.0127,0.0127,0,0,-0.0533,-0.0506,-0.0535,-0.0464,-0.048,-0.0334,-0.0307,-0.0175,-0.0073,0.0073,0.0076,-0.0008,-0.0049,0.0016,0.0115,0.0115,0,0,0,-0.0578,-0.0597,-0.0588,-0.0574,-0.0509,-0.0418,-0.0282,-0.0195,-0.007,-0.0039,0.0025,0.0004,0.0049,0.012,0.012,0.0399,0.0118,0.0118,0.0119,-0.0706,-0.068,-0.0719,-0.0666,-0.0624,-0.0466,-0.0378,-0.0223,-0.013,-0.009,-0.0079,-0.0088,-0.0017,-0.0015,0.0269,-0.0054,-0.0055,-0.0055,-0.0056,-0.084,-0.0868,-0.0809,-0.084,-0.0719,-0.0663,-0.0445,-0.0351,-0.0184,-0.0139,-0.0087,0.0006,-0.0022,0.0281,-0.0063,-0.0062,-0.0061,-0.006,-0.006,-0.093,-0.0941,-0.0948,-0.0965,-0.0914,-0.0772,-0.0661,-0.0499,-0.03,-0.0263,-0.0078,-0.0074,0.0182,-0.0214,-0.0214,-0.0214,-0.0214,-0.0214,-0.0214,-0.102,-0.1024,-0.1087,-0.1086,-0.1088,-0.1018,-0.0782,-0.0629,-0.0348,-0.0184,-0.018,0.0229,-0.0133,-0.0139,-0.0213,-0.0213,-0.0213,-0.0213,-0.0213,-0.1136,-0.1127,-0.1235,-0.1265,-0.1264,-0.1194,-0.0974,-0.0571,-0.0368,-0.0189,0.0309,-0.0088,-0.0008,-0.0005,-0.0005,-0.0039,-0.0039,-0.0039,-0.0039,-0.1197,-0.1208,-0.1336,-0.1403,-0.1417,-0.1274,-0.0981,-0.0531,0.0116,0.0456,0.0535,0.0603,0.0584,0.0703,0.069,0.0707,0.0855,0.0856,0.0858,-0.1257,-0.1299,-0.1389,-0.1455,-0.148,-0.1325,-0.0999,-0.0397,0.0535,0.092,0.0902,0.0864,0.0985,0.0932,0.1134,0.1093,0.1126,0,0]}],[{"header":{"parameterUnit":"m.s-1","parameterCategory":2,"la1":30.2992,"la2":30.254,"lo1":-89.0895,"lo2":-89.0443,"dy":0.0025,"dx":0.0025,"nx":19,"ny":19,"refTime":"2026-05-18T03:00:00:Z","depth":"2","parameterNumber":2,"parameterNumberName":"U-component_of_CURRENTS"},"data":[0,0,0,-0.2928,-0.2931,-0.3047,-0.3047,-0.315,-0.3151,0,0,0,0,0,0,0,0,0,0,0,-0.2872,-0.2872,-0.2928,-0.2931,-0.3047,-0.3047,-0.315,-0.3151,0,0,0,0,0,0,0,0,0,0,0,-0.2871,-0.2872,-0.2873,-0.2931,-0.3047,-0.3047,-0.3149,-0.3072,0,0,0,0,0,0,0,0,0,0,-0.2965,-0.2912,-0.2872,-0.2873,-0.2932,-0.3047,-0.3047,-0.3069,-0.3077,-0.3085,0,-0.3097,0,-0.3135,-0.3157,-0.3157,0,0,0,-0.2927,-0.2906,-0.2949,-0.2873,-0.2933,-0.3046,-0.2993,-0.3074,-0.3083,-0.3096,-0.3099,-0.3104,-0.3136,-0.3157,-0.3158,-0.3292,-0.3293,0,0,-0.2921,-0.2883,-0.2943,-0.2954,-0.2955,-0.299,-0.2997,-0.308,-0.3077,-0.3099,-0.3107,-0.3138,-0.3158,-0.3159,-0.3292,-0.3292,0,0,0,-0.2905,-0.2878,-0.2921,-0.2949,-0.2979,-0.2993,-0.3002,-0.3073,-0.3091,-0.3108,-0.3139,-0.3158,-0.316,-0.3291,-0.3292,-0.3316,0,0,0,-0.2901,-0.287,-0.2917,-0.2895,-0.2977,-0.3033,-0.2992,-0.3084,-0.3096,-0.3139,-0.3158,-0.316,-0.329,-0.3291,-0.3313,-0.3295,0,0,0,-0.2868,-0.2867,-0.288,-0.2893,-0.2949,-0.3033,-0.3055,-0.3088,-0.3115,-0.3157,-0.3161,-0.3289,-0.3291,-0.3311,-0.3293,-0.3285,0,0,0,-0.2826,-0.2864,-0.2879,-0.2943,-0.2948,-0.3073,-0.3055,-0.314,-0.3183,-0.3159,-0.329,-0.3292,-0.331,-0.3291,-0.3284,-0.3031,-0.3016,0,0,-0.2861,-0.2867,-0.2914,-0.2932,-0.3042,-0.3057,-0.3167,-0.3204,-0.3211,-0.3256,-0.326,-0.3314,-0.3293,-0.3285,-0.3139,-0.312,0,0,0,-0.2919,-0.2936,-0.298,-0.3041,-0.313,-0.3185,-0.3242,-0.326,-0.3306,-0.3246,-0.3346,-0.3331,-0.3325,-0.3172,-0.3158,-0.3301,-0.33,-0.33,-0.33,-0.2869,-0.2948,-0.3016,-0.3111,-0.3186,-0.3283,-0.3321,-0.3351,-0.3368,-0.3394,-0.3376,-0.3416,-0.3257,-0.3242,-0.3419,-0.3419,-0.3419,-0.3419,-0.3419,-0.2886,-0.2909,-0.3012,-0.3101,-0.3187,-0.3271,-0.3377,-0.3396,-0.3433,-0.3438,-0.3431,-0.3235,-0.3227,-0.3422,-0.3422,-0.3421,-0.3421,-0.3421,-0.3421,-0.281,-0.2829,-0.2903,-0.301,-0.3111,-0.3238,-0.3292,-0.3383,-0.3427,-0.3437,-0.3254,-0.325,-0.3388,-0.3438,-0.3438,-0.3438,-0.3438,-0.3438,-0.3438,-0.2671,-0.2755,-0.2779,-0.2916,-0.2968,-0.3077,-0.3241,-0.3268,-0.3257,-0.3241,-0.3239,-0.3422,-0.3421,-0.339,-0.3436,-0.3437,-0.3437,-0.3437,-0.3437,-0.2536,-0.2579,-0.2606,-0.265,-0.2779,-0.2763,-0.299,-0.297,-0.3032,-0.2956,-0.3118,-0.3126,-0.3081,-0.3089,-0.305,-0.3006,-0.3006,-0.3006,-0.3006,-0.2398,-0.2441,-0.2416,-0.2439,-0.2496,-0.2599,-0.2463,-0.2493,-0.262,-0.2628,-0.2645,-0.2586,-0.261,-0.2537,-0.2558,-0.2508,-0.2324,-0.2323,-0.2322,-0.2271,-0.2301,-0.2212,-0.228,-0.2337,-0.2342,-0.2106,-0.1959,-0.2046,-0.2302,-0.26,-0.2946,-0.2901,-0.2923,-0.2847,-0.2867,-0.2801,0,0]},{"header":{"parameterUnit":"m.s-1","parameterCategory":2,"la1":30.2992,"la2":30.254,"lo1":-89.0895,"lo2":-89.0443,"dy":0.0025,"dx":0.0025,"nx":19,"ny":19,"refTime":"2026-05-18T03:00:00:Z","depth":"2","parameterNumber":3,"parameterNumberName":"V-component_of_CURRENTS"},"data":[0,0,0,-0.0342,-0.034,-0.0229,-0.0228,-0.0028,-0.0026,0,0,0,0,0,0,0,0,0,0,0,-0.0382,-0.0382,-0.0342,-0.034,-0.0229,-0.0228,-0.0028,-0.0026,0,0,0,0,0,0,0,0,0,0,0,-0.0382,-0.0382,-0.0382,-0.034,-0.0229,-0.0228,-0.0029,-0.0122,0,0,0,0,0,0,0,0,0,0,-0.0234,-0.0294,-0.0382,-0.0382,-0.0339,-0.023,-0.0228,-0.0126,-0.0116,-0.0068,0,-0.0068,0,-0.0049,-0.0014,-0.0013,0,0,0,-0.0318,-0.0303,-0.0271,-0.0382,-0.0338,-0.023,-0.0273,-0.0121,-0.0109,-0.0054,-0.0065,-0.0058,-0.0046,-0.0012,-0.0011,0.0108,0.0108,0,0,-0.0324,-0.0355,-0.028,-0.0264,-0.033,-0.0277,-0.027,-0.0114,-0.011,-0.0065,-0.0053,-0.0043,-0.0011,-0.001,0.0108,0.0108,0,0,0,-0.0356,-0.036,-0.0332,-0.0272,-0.0261,-0.0274,-0.0266,-0.0116,-0.0107,-0.0051,-0.004,-0.001,-0.0008,0.0108,0.0108,-0.0021,0,0,0,-0.0359,-0.038,-0.0336,-0.0352,-0.0265,-0.0197,-0.0272,-0.0118,-0.01,-0.0041,-0.001,-0.0006,0.0109,0.0108,-0.0017,-0.0073,0,0,0,-0.0384,-0.0383,-0.0376,-0.0354,-0.0316,-0.0199,-0.018,-0.0114,-0.0094,-0.0013,-0.0005,0.0109,0.0108,-0.0014,-0.0067,-0.002,0,0,0,-0.0409,-0.0447,-0.0377,-0.0415,-0.0317,-0.0286,-0.0181,-0.0138,-0.0081,-0.0009,0.0109,0.0108,-0.0013,-0.0063,-0.0017,0.005,0.0044,0,0,-0.048,-0.0456,-0.0481,-0.0417,-0.0435,-0.0299,-0.0282,-0.0161,-0.0062,0.0066,0.0069,-0.0019,-0.0066,-0.0019,0.0034,0.0029,0,0,0,-0.0519,-0.054,-0.0532,-0.0523,-0.0462,-0.039,-0.0263,-0.0184,-0.0072,-0.0032,0.0013,-0.0012,0.0021,0.0067,0.0063,0.0107,0.0107,0.0107,0.0107,-0.0642,-0.062,-0.0661,-0.0618,-0.0582,-0.0444,-0.0369,-0.023,-0.0134,-0.01,-0.0096,-0.012,-0.0074,-0.0076,-0.0068,-0.0068,-0.0069,-0.0069,-0.0069,-0.0774,-0.0807,-0.076,-0.0795,-0.0694,-0.065,-0.0458,-0.0367,-0.0218,-0.0163,-0.0123,-0.0045,-0.0088,-0.0079,-0.0077,-0.0076,-0.0075,-0.0074,-0.0073,-0.0868,-0.0882,-0.0893,-0.0924,-0.0893,-0.077,-0.0691,-0.0533,-0.034,-0.0308,-0.0158,-0.0154,-0.0176,-0.0263,-0.0263,-0.0264,-0.0264,-0.0264,-0.0264,-0.096,-0.0969,-0.1039,-0.1051,-0.1063,-0.1018,-0.0819,-0.069,-0.0436,-0.0275,-0.0272,-0.0183,-0.0176,-0.0182,-0.0265,-0.0265,-0.0265,-0.0264,-0.0264,-0.1082,-0.1073,-0.1188,-0.1227,-0.1252,-0.1217,-0.1029,-0.0695,-0.0512,-0.0357,-0.0209,-0.021,-0.0139,-0.0133,-0.0135,-0.02,-0.02,-0.02,-0.02,-0.1149,-0.1159,-0.1299,-0.1378,-0.1416,-0.1309,-0.1091,-0.0708,-0.0344,-0.0165,-0.0167,-0.0143,-0.0146,-0.0073,-0.0068,-0.0067,-0.0115,-0.0115,-0.0115,-0.1218,-0.1258,-0.1359,-0.1435,-0.1485,-0.1381,-0.1131,-0.0627,-0.0154,-0.0116,-0.0192,-0.0186,-0.0154,-0.0157,-0.0042,-0.0037,-0.0034,0,0]}],[{"header":{"parameterUnit":"m.s-1","parameterCategory":2,"la1":30.2992,"la2":30.254,"lo1":-89.0895,"lo2":-89.0443,"dy":0.0025,"dx":0.0025,"nx":19,"ny":19,"refTime":"2026-05-18T03:00:00:Z","depth":"4","parameterNumber":2,"parameterNumberName":"U-component_of_CURRENTS"},"data":[0,0,0,-0.2216,-0.222,-0.2411,-0.2412,-0.253,-0.2531,0,0,0,0,0,0,0,0,0,0,0,-0.2151,-0.2152,-0.2216,-0.2221,-0.2411,-0.2412,-0.253,-0.2531,0,0,0,0,0,0,0,0,0,0,0,-0.215,-0.2152,-0.2154,-0.2221,-0.2411,-0.2412,-0.253,-0.2417,0,0,0,0,0,0,0,0,0,0,-0.2247,-0.2209,-0.2152,-0.2154,-0.2222,-0.2411,-0.2412,-0.2413,-0.2424,-0.2407,0,-0.2447,0,-0.2489,-0.2536,-0.2536,0,0,0,-0.2221,-0.2201,-0.2248,-0.2154,-0.2224,-0.2411,-0.2325,-0.242,-0.2432,-0.2421,-0.2449,-0.2454,-0.2491,-0.2536,-0.2536,-0.2647,-0.2647,0,0,-0.221,-0.2186,-0.224,-0.2256,-0.2284,-0.2319,-0.2331,-0.2429,-0.2445,-0.2449,-0.2458,-0.2493,-0.2537,-0.2537,-0.2646,-0.2647,0,0,0,-0.218,-0.2178,-0.2227,-0.225,-0.2294,-0.2325,-0.2339,-0.2441,-0.2457,-0.2459,-0.2494,-0.2537,-0.2538,-0.2645,-0.2646,-0.2697,0,0,0,-0.2173,-0.2161,-0.2222,-0.2209,-0.2293,-0.2389,-0.2348,-0.245,-0.2463,-0.2494,-0.2537,-0.2539,-0.2644,-0.2646,-0.2694,-0.2684,0,0,0,-0.214,-0.2157,-0.2182,-0.2208,-0.229,-0.2388,-0.2411,-0.2455,-0.2483,-0.2536,-0.2539,-0.2644,-0.2645,-0.2692,-0.2681,-0.268,0,0,0,-0.2104,-0.2148,-0.2182,-0.2251,-0.2289,-0.241,-0.2411,-0.2509,-0.2561,-0.2537,-0.2645,-0.2646,-0.2691,-0.2679,-0.2679,-0.2317,0,0,0,-0.2133,-0.2151,-0.2193,-0.2228,-0.233,-0.2383,-0.2495,-0.2562,-0.2573,-0.2601,-0.2606,-0.2695,-0.2681,-0.268,-0.2412,0,0,0,0,-0.2185,-0.2209,-0.2249,-0.2323,-0.2412,-0.2496,-0.2577,-0.2609,-0.2677,-0.2612,-0.2713,-0.2701,-0.2699,-0.2485,-0.2654,-0.2653,-0.2653,-0.2653,-0.2653,-0.2155,-0.222,-0.2287,-0.2376,-0.2459,-0.2584,-0.2646,-0.2699,-0.272,-0.2762,-0.2757,-0.2807,-0.2586,-0.279,-0.279,-0.2791,-0.2791,-0.2791,-0.2791,-0.2158,-0.2177,-0.229,-0.2378,-0.2487,-0.259,-0.2711,-0.2753,-0.2815,-0.2822,-0.2819,-0.2572,-0.2797,-0.2796,-0.2795,-0.2794,-0.2794,-0.2793,-0.2793,-0.2087,-0.2101,-0.2194,-0.2316,-0.2448,-0.259,-0.265,-0.2768,-0.2833,-0.2855,-0.2612,-0.2825,-0.2801,-0.2865,-0.2865,-0.2865,-0.2865,-0.2865,-0.2865,-0.1948,-0.2042,-0.2091,-0.2246,-0.2321,-0.2442,-0.2626,-0.2646,-0.2754,-0.2604,-0.2866,-0.283,-0.2828,-0.2805,-0.2865,-0.2865,-0.2865,-0.2865,-0.2865,-0.1806,-0.1875,-0.1919,-0.1989,-0.2137,-0.2197,-0.2431,-0.241,-0.2406,-0.2325,-0.2457,-0.2478,-0.2411,-0.2418,-0.2378,-0.2314,-0.2309,-0.2305,0,-0.1682,-0.1727,-0.1746,-0.1786,-0.182,-0.2019,-0.1935,-0.2018,-0.2109,-0.2041,-0.2396,-0.2546,-0.2558,-0.2485,-0.2485,-0.2437,0,0,0,-0.1568,-0.1599,-0.1548,-0.1627,-0.165,-0.1711,-0.1891,-0.1822,-0.2128,-0.2003,-0.2192,-0.2222,-0.26,-0.2864,-0.281,-0.2807,-0.2766,0,0]},{"header":{"parameterUnit":"m.s-1","parameterCategory":2,"la1":30.2992,"la2":30.254,"lo1":-89.0895,"lo2":-89.0443,"dy":0.0025,"dx":0.0025,"nx":19,"ny":19,"refTime":"2026-05-18T03:00:00:Z","depth":"4","parameterNumber":3,"parameterNumberName":"V-component_of_CURRENTS"},"data":[0,0,0,-0.0205,-0.0203,-0.0125,-0.0125,0.0029,0.003,0,0,0,0,0,0,0,0,0,0,0,-0.0234,-0.0234,-0.0205,-0.0203,-0.0125,-0.0125,0.0029,0.003,0,0,0,0,0,0,0,0,0,0,0,-0.0234,-0.0234,-0.0234,-0.0203,-0.0125,-0.0125,0.0028,-0.0039,0,0,0,0,0,0,0,0,0,0,-0.012,-0.0168,-0.0234,-0.0234,-0.0203,-0.0125,-0.0124,-0.0043,-0.0035,0.0003,0,-0.0001,0,0.0013,0.004,0.0041,0,0,0,-0.0184,-0.0175,-0.0151,-0.0234,-0.0202,-0.0126,-0.0155,-0.0039,-0.003,0.0013,0.0001,0.0007,0.0015,0.0041,0.0042,0.0131,0.0131,0,0,-0.0189,-0.0215,-0.0158,-0.0146,-0.0201,-0.0158,-0.0153,-0.0034,-0.0033,0.0002,0.001,0.0018,0.0042,0.0043,0.0132,0.0131,0,0,0,-0.0214,-0.0218,-0.0198,-0.0152,-0.0145,-0.0156,-0.015,-0.0038,-0.0031,0.0012,0.002,0.0043,0.0045,0.0132,0.0131,0.0006,0,0,0,-0.0216,-0.0234,-0.0201,-0.0214,-0.0149,-0.01,-0.0157,-0.0039,-0.0026,0.0019,0.0043,0.0046,0.0132,0.0132,0.0009,-0.0051,0,0,0,-0.0234,-0.0236,-0.0233,-0.0216,-0.019,-0.0102,-0.0087,-0.0036,-0.0021,0.0041,0.0046,0.0132,0.0132,0.0012,-0.0044,-0.0025,0,0,0,-0.0254,-0.0281,-0.0234,-0.0264,-0.0191,-0.0172,-0.0088,-0.0055,-0.0012,0.0044,0.0132,0.0131,0.0014,-0.004,-0.0022,-0.0047,0,0,0,-0.0303,-0.0288,-0.0307,-0.0264,-0.0286,-0.018,-0.018,-0.0084,0.0002,0.01,0.0102,0.0008,-0.0044,-0.0024,-0.0061,0,0,0,0,-0.0333,-0.0354,-0.035,-0.0353,-0.0308,-0.0271,-0.017,-0.011,-0.0024,0.0025,0.0038,0.001,0.0027,0.0022,0.013,0.013,0.013,0.013,0.013,-0.0429,-0.0418,-0.046,-0.044,-0.0419,-0.0326,-0.0279,-0.0172,-0.0083,-0.0059,-0.007,-0.0113,-0.0124,-0.0039,-0.004,-0.004,-0.0041,-0.0041,-0.0041,-0.0535,-0.0568,-0.0553,-0.0594,-0.0539,-0.0521,-0.0382,-0.0309,-0.0203,-0.0141,-0.0118,-0.0085,-0.0053,-0.0051,-0.0049,-0.0048,-0.0047,-0.0046,-0.0045,-0.061,-0.0625,-0.0654,-0.071,-0.072,-0.0642,-0.0608,-0.0484,-0.0324,-0.0309,-0.0237,-0.0169,-0.018,-0.0276,-0.0276,-0.0276,-0.0276,-0.0277,-0.0277,-0.0672,-0.0699,-0.0779,-0.0826,-0.0861,-0.0858,-0.0733,-0.0642,-0.0478,-0.0372,-0.0328,-0.0191,-0.0183,-0.019,-0.028,-0.0279,-0.0279,-0.0279,-0.0278,-0.076,-0.0769,-0.0891,-0.0952,-0.1027,-0.1011,-0.0915,-0.0701,-0.0597,-0.0475,-0.0369,-0.0364,-0.0305,-0.0293,-0.0302,-0.0429,-0.043,-0.043,0,-0.0806,-0.0824,-0.0977,-0.1079,-0.1137,-0.1091,-0.0965,-0.0826,-0.0607,-0.0602,-0.0594,-0.0486,-0.0477,-0.0421,-0.0411,-0.0428,0,0,0,-0.086,-0.0901,-0.101,-0.111,-0.1178,-0.1024,-0.0923,-0.084,-0.065,-0.0539,-0.0447,-0.0442,-0.0412,-0.0289,-0.0184,-0.0174,-0.0178,0,0]}]]